EW0493 Weather Reports


Display with metric or nautical units.
time (UTC)temp
F
wind
direction
speed
MPH
gust
MPH
rain 1hr
in
rain 24hr
in
rain mn
in
humidity
%
barometer
mb
20211129113053 29 255 0.0 3.0 0.00 0.00 0.00 91 1012.2
20211129110155 29 306 0.0 7.0 0.00 0.00 0.00 90 1011.9
20211129104525 29 278 0.0 7.0 0.00 0.00 0.00 90 1011.7
20211129103121 29 277 0.0 4.0 0.00 0.00 0.00 89 1011.4
20211129101617 29 294 1.0 6.0 0.00 0.00 0.00 89 1011.3
20211129100055 29 263 0.0 6.0 0.00 0.00 0.00 89 1011.1
20211129091629 29 222 0.0 5.0 0.00 0.00 0.00 91 1011.0
20211129090114 29 274 1.0 7.0 0.00 0.00 0.00 91 1010.9
20211129084555 29 219 0.0 4.0 0.00 0.00 0.00 92 1010.9
20211129081622 29 269 0.0 6.0 0.00 0.00 0.00 92 1010.8
20211129080005 29 265 0.0 6.0 0.00 0.00 0.00 92 1010.7
20211129071613 30 229 1.0 9.0 0.00 0.00 0.00 91 1010.3
20211129070117 30 271 0.0 9.0 0.00 0.00 0.00 92 1010.2
20211129064549 30 257 0.0 4.0 0.00 0.00 0.00 91 1010.3
20211129061652 31 309 0.0 8.0 0.00 0.00 0.00 90 1010.3
20211129054636 31 239 0.0 6.0 0.00 0.00 0.00 91 1010.3
20211129051552 32 243 1.0 6.0 0.00 0.00 0.00 90 1010.4
20211129044752 32 272 0.0 4.0 0.00 0.00 0.00 90 1010.3
20211129041732 33 250 1.0 6.0 0.00 0.00 0.00 89 1010.6
20211129034727 33 259 1.0 4.0 0.00 0.00 0.00 89 1010.4
20211129031632 33 265 0.0 5.0 0.00 0.00 0.00 88 1010.5
20211129024732 33 274 0.0 6.0 0.00 0.00 0.00 87 1010.5
20211129021708 33 269 0.0 1.0 0.00 0.00 0.00 88 1010.7
20211129014710 33 244 0.0 0.0 0.00 0.00 0.00 89 1010.6
20211129013053 33 255 0.0 3.0 0.00 0.00 0.00 89 1010.8
20211129011540 33 253 0.0 3.0 0.00 0.00 0.00 88 1010.8
20211129010001 33 281 0.0 2.0 0.00 0.00 0.00 89 1010.8
20211129003057 33 243 0.0 1.0 0.00 0.00 0.00 89 1010.7
20211129001538 32 203 0.0 0.0 0.00 0.00 0.00 90 1010.7
20211129000003 32 252 0.0 0.0 0.00 0.00 0.00 90 1010.5
20211128234623 33 253 0.0 1.0 0.00 0.00 0.00 90 1010.4
20211128231759 33 236 0.0 0.0 0.00 0.00 0.00 90 1010.4
20211128230041 33 253 0.0 1.0 0.00 0.00 0.00 89 1010.5
20211128223109 33 259 0.0 5.0 0.00 0.00 0.00 90 1010.8
20211128221504 33 239 0.0 3.0 0.00 0.00 0.00 90 1010.5
20211128220059 33 229 0.0 6.0 0.00 0.00 0.00 91 1010.6
20211128213220 33 205 0.0 1.0 0.00 0.00 0.00 91 1010.5
20211128203117 33 238 0.0 1.0 0.00 0.00 0.00 91 1010.1
20211128201540 33 233 0.0 2.0 0.00 0.00 0.00 90 1009.8
20211128194502 32 276 0.0 2.0 0.00 0.00 0.00 92 1009.5
20211128193119 32 112 0.0 0.0 0.00 0.00 0.00 92 1009.5
20211128190125 31 112 0.0 0.0 0.00 0.00 0.00 92 1009.4
20211128184516 31 112 0.0 0.0 0.00 0.00 0.00 93 1009.4
20211128183109 30 115 0.0 1.0 0.00 0.00 0.00 93 1009.3
20211128180029 30 108 0.0 0.0 0.00 0.00 0.00 93 1009.8
20211128173044 30 277 0.0 0.0 0.00 0.00 0.00 93 1010.0
20211128171521 30 114 0.0 1.0 0.00 0.00 0.00 94 1010.2
20211128161716 29 108 0.0 1.0 0.00 0.00 0.00 94 1010.8
20211128154652 29 197 0.0 0.0 0.00 0.00 0.00 94 1011.0
20211128153004 29 118 0.0 1.0 0.00 0.00 0.00 95 1011.0
20211128151646 28 127 0.0 2.0 0.00 0.00 0.00 96 1011.2
20211128144626 28 117 0.0 0.0 0.00 0.00 0.00 97 1011.3
20211128141505 27 114 0.0 1.0 0.00 0.00 0.00 97 1011.2
20211128140334 27 105 0.0 0.0 0.00 0.00 0.00 98 1011.3
20211128133110 27 112 0.0 0.0 0.00 0.00 0.00 98 1011.2
20211128131530 27 101 0.0 0.0 0.00 0.00 0.00 98 1011.2
20211128130112 27 102 0.0 0.0 0.00 0.00 0.00 98 1011.2
20211128123111 26 108 0.0 0.0 0.00 0.00 0.00 98 1011.3
20211128120106 26 249 0.0 1.0 0.00 0.00 0.00 98 1011.3
20211128114705 26 105 0.0 1.0 0.00 0.00 0.00 98 1011.1